TimeMST,TemperatureF,Dew PointF,Humidity,Sea Level PressureIn,VisibilityMPH,Wind Direction,Wind SpeedMPH,Gust SpeedMPH,PrecipitationIn,Events,Conditions,WindDirDegrees,DateUTC
12:15 AM,-7.6,-11.2,84,30.42,8.0,Calm,Calm,-,N/A,,Clear,0,2013-01-19 07:15:00
12:35 AM,-7.6,-16.6,65,30.42,7.0,Calm,Calm,-,N/A,,Clear,0,2013-01-19 07:35:00
12:56 AM,-9.4,-9.4,100,30.42,10.0,Calm,Calm,-,N/A,,Clear,0,2013-01-19 07:56:00
1:15 AM,-13.0,-27.4,49,30.43,10.0,Calm,Calm,-,N/A,,Clear,0,2013-01-19 08:15:00
1:35 AM,-11.2,-13.0,92,30.43,10.0,Calm,Calm,-,N/A,,Clear,0,2013-01-19 08:35:00
1:55 AM,-9.4,-20.2,59,30.43,10.0,Calm,Calm,-,N/A,,Clear,0,2013-01-19 08:55:00
2:15 AM,-11.2,-29.2,41,30.43,10.0,Calm,Calm,-,N/A,,Clear,0,2013-01-19 09:15:00
2:35 AM,-11.2,-9999,N/A,30.44,10.0,Calm,Calm,-,N/A,,Clear,0,2013-01-19 09:35:00
2:55 AM,-11.2,-9999,N/A,30.44,10.0,Calm,Calm,-,N/A,,Clear,0,2013-01-19 09:55:00
3:15 AM,-14.8,-9999,N/A,30.44,10.0,Calm,Calm,-,N/A,,Clear,0,2013-01-19 10:15:00
3:35 AM,-11.2,-9999,N/A,30.44,10.0,Calm,Calm,-,N/A,,Clear,0,2013-01-19 10:35:00
3:55 AM,-11.2,-27.4,45,30.44,10.0,Calm,Calm,-,N/A,,Clear,0,2013-01-19 10:55:00
4:15 AM,-11.2,-25.6,49,30.46,10.0,ENE,4.6,-,N/A,,Clear,70,2013-01-19 11:15:00
4:35 AM,-13.0,-9999,N/A,30.47,10.0,Calm,Calm,-,N/A,,Clear,0,2013-01-19 11:35:00
4:55 AM,-14.8,-9999,N/A,30.46,10.0,Calm,Calm,-,N/A,,Clear,0,2013-01-19 11:55:00
5:15 AM,-13.0,-9999,N/A,30.47,10.0,Calm,Calm,-,N/A,,Clear,0,2013-01-19 12:15:00
5:35 AM,-14.8,-9999,N/A,30.47,10.0,Calm,Calm,-,N/A,,Clear,0,2013-01-19 12:35:00
5:55 AM,-16.6,-9999,N/A,30.48,10.0,Calm,Calm,-,N/A,,Clear,0,2013-01-19 12:55:00
6:15 AM,-14.8,-9999,N/A,30.48,10.0,Calm,Calm,-,N/A,,Clear,0,2013-01-19 13:15:00
6:35 AM,-14.8,-9999,N/A,30.48,10.0,Calm,Calm,-,N/A,,Clear,0,2013-01-19 13:35:00
6:55 AM,-16.6,-9999,N/A,30.49,10.0,Calm,Calm,-,N/A,,Clear,0,2013-01-19 13:55:00
7:15 AM,-14.8,-9999,N/A,30.50,10.0,NE,3.5,-,N/A,,Clear,50,2013-01-19 14:15:00
7:35 AM,-14.8,-29.2,48,30.51,10.0,Calm,Calm,-,N/A,,Clear,0,2013-01-19 14:35:00
7:55 AM,-16.6,-9999,N/A,30.52,10.0,Calm,Calm,-,N/A,,Clear,0,2013-01-19 14:55:00
8:15 AM,-18.4,-9999,N/A,30.53,10.0,Calm,Calm,-,N/A,,Clear,0,2013-01-19 15:15:00
8:35 AM,-14.8,-18.4,84,30.55,10.0,Calm,Calm,-,N/A,,Clear,0,2013-01-19 15:35:00
8:55 AM,-14.8,-27.4,53,30.55,10.0,Calm,Calm,-,N/A,,Scattered Clouds,0,2013-01-19 15:55:00
9:15 AM,-11.2,-20.2,64,30.57,10.0,SE,3.5,-,N/A,,Mostly Cloudy,140,2013-01-19 16:15:00
9:35 AM,-9.4,-18.4,65,30.57,10.0,Calm,Calm,-,N/A,,Scattered Clouds,0,2013-01-19 16:35:00
9:55 AM,-5.8,-13.0,71,30.58,10.0,South,3.5,-,N/A,,Clear,190,2013-01-19 16:55:00
10:15 AM,-2.2,-13.0,60,30.58,10.0,SW,3.5,-,N/A,,Clear,230,2013-01-19 17:15:00
10:35 AM,-0.4,-9999,N/A,30.57,10.0,West,4.6,-,N/A,,Clear,260,2013-01-19 17:35:00
10:55 AM,1.4,-20.2,36,30.56,10.0,West,3.5,-,N/A,,Clear,270,2013-01-19 17:55:00
11:15 AM,3.2,-23.8,28,30.54,10.0,Calm,Calm,-,N/A,,Clear,0,2013-01-19 18:15:00
11:35 AM,6.8,-18.4,31,30.54,10.0,ENE,4.6,-,N/A,,Clear,70,2013-01-19 18:35:00
11:55 AM,5.0,-20.2,30,30.51,10.0,East,4.6,-,N/A,,Clear,90,2013-01-19 18:55:00
12:15 PM,6.8,-14.8,37,30.50,10.0,ESE,3.5,-,N/A,,Clear,110,2013-01-19 19:15:00
12:35 PM,8.6,-7.6,48,30.49,10.0,Calm,Calm,-,N/A,,Clear,0,2013-01-19 19:35:00
12:55 PM,10.4,-7.6,44,30.48,10.0,Calm,Calm,-,N/A,,Clear,0,2013-01-19 19:55:00
1:15 PM,10.4,-0.4,62,30.47,10.0,Calm,Calm,-,N/A,,Clear,0,2013-01-19 20:15:00
1:35 PM,12.2,-2.2,53,30.46,10.0,Calm,Calm,-,N/A,,Clear,0,2013-01-19 20:35:00
1:55 PM,12.2,-0.4,57,30.45,10.0,Calm,Calm,-,N/A,,Clear,0,2013-01-19 20:55:00
2:15 PM,15.8,-0.4,49,30.45,10.0,ESE,3.5,-,N/A,,Clear,120,2013-01-19 21:15:00
2:35 PM,15.8,1.4,53,30.45,10.0,Calm,Calm,-,N/A,,Clear,0,2013-01-19 21:35:00
2:55 PM,19.4,3.2,49,30.45,10.0,Calm,Calm,-,N/A,,Clear,0,2013-01-19 21:55:00
3:15 PM,19.4,1.4,46,30.45,10.0,Calm,Calm,-,N/A,,Clear,0,2013-01-19 22:15:00
3:35 PM,17.6,-0.4,45,30.45,10.0,Calm,Calm,-,N/A,,Clear,0,2013-01-19 22:35:00
4:35 PM,17.6,1.4,49,30.44,10.0,Calm,Calm,-,N/A,,Clear,0,2013-01-19 23:35:00
4:55 PM,17.6,1.4,49,30.44,10.0,Calm,Calm,-,N/A,,Clear,0,2013-01-19 23:55:00
5:15 PM,15.8,1.4,53,30.44,10.0,Calm,Calm,-,N/A,,Clear,0,2013-01-20 00:15:00
5:35 PM,10.4,-2.2,57,30.44,10.0,North,4.6,-,N/A,,Clear,350,2013-01-20 00:35:00
5:55 PM,12.2,3.2,67,30.44,10.0,North,3.5,-,N/A,,Clear,350,2013-01-20 00:55:00
6:15 PM,10.4,-0.4,62,30.45,10.0,NE,3.5,-,N/A,,Clear,40,2013-01-20 01:15:00
6:55 PM,6.8,-0.4,72,30.46,10.0,Calm,Calm,-,N/A,,Clear,0,2013-01-20 01:55:00
7:15 PM,6.8,-2.2,67,30.46,10.0,Calm,Calm,-,N/A,,Clear,0,2013-01-20 02:15:00
7:35 PM,5.0,-5.8,61,30.46,10.0,Calm,Calm,-,N/A,,Clear,0,2013-01-20 02:35:00
8:15 PM,1.4,-9.4,61,30.47,10.0,Calm,Calm,-,N/A,,Clear,0,2013-01-20 03:15:00
8:35 PM,1.4,-4.0,78,30.47,10.0,Calm,Calm,-,N/A,,Clear,0,2013-01-20 03:35:00
8:55 PM,1.4,-4.0,78,30.47,10.0,Calm,Calm,-,N/A,,Clear,0,2013-01-20 03:55:00
9:15 PM,-2.2,-18.4,46,30.47,10.0,Calm,Calm,-,N/A,,Clear,0,2013-01-20 04:15:00
9:35 PM,-2.2,-2.2,100,30.47,7.0,Calm,Calm,-,N/A,,Clear,0,2013-01-20 04:35:00
9:55 PM,-2.2,-9.4,71,30.48,5.0,Calm,Calm,-,N/A,,Clear,0,2013-01-20 04:55:00
10:15 PM,-7.6,-23.8,45,30.48,10.0,Calm,Calm,-,N/A,,Clear,0,2013-01-20 05:15:00
10:35 PM,-5.8,-11.2,77,30.48,10.0,Calm,Calm,-,N/A,,Clear,0,2013-01-20 05:35:00
10:55 PM,-5.8,-9.4,84,30.48,10.0,Calm,Calm,-,N/A,,Clear,0,2013-01-20 05:55:00
11:15 PM,-7.6,-18.4,59,30.48,10.0,ENE,3.5,-,N/A,,Clear,70,2013-01-20 06:15:00
11:35 PM,-7.6,-11.2,84,30.48,10.0,NE,4.6,-,N/A,,Clear,50,2013-01-20 06:35:00
11:55 PM,-5.8,-9.4,84,30.48,10.0,Calm,Calm,-,N/A,,Clear,0,2013-01-20 06:55:00